Flag for Estonia Weather past 2 weeks in Tallinn, Estonia

37 °F


Feels Like: 27 °F
Forecast: 39 / 41 °F
Wind: 20 mph from Southeast

Location: Tallinn

Current Time: Nov 30, 2015 at 10:51:13 AM

Latest Report: Nov 30, 2015 at 8:50 AM

Visibility: N/A

Pressure: 29.00 "Hg

Humidity: 93%

Dew point: 36 °F

Location of TallinnLocation

Historic Weather in Tallinn — Graph


Tallinn temperature yesterday

Maximum temperature yesterday: 39 °F (at 12:20 PM)
Minimum temperature yesterday: 36 °F (at 6:20 AM)
Average temperature yesterday: 37 °F

Past Weeks' High & Low Weather Summary

High46 °F (Nov 27, 3:50 PM)100% (Nov 15, 9:20 AM)29.95 "Hg (Nov 15, 9:20 AM)
Low25 °F (Nov 23, 11:50 PM)65% (Nov 23, 9:20 AM)29.00 "Hg (Nov 30, 8:50 AM)
Average37 °F91%29.53 "Hg
* Reported Nov 15 8:20 AM — Nov 30 8:50 AM, Tallinn, Weather by CustomWeather, © 2015

Note: Actual official high and low records may vary slightly from our data, if they occured in-between our weather recording intervals... More about our weather records


Tallinn weather history for previous 24 hours

Time TempWeatherWind HumidityBarometerVisibility
8:50 AM
Mon, Nov 30
37 °FOvercast.20 mph93%29.00 "HgN/A
8:20 AM37 °FMostly cloudy.17 mph93%29.03 "HgN/A
7:50 AM37 °FLight rain. Overcast.16 mph93%29.06 "HgN/A
7:20 AM37 °FLight rain. Overcast.18 mph93%29.06 "HgN/A
6:50 AM39 °FOvercast.18 mph87%29.09 "HgN/A
6:20 AM39 °FOvercast.18 mph87%29.09 "HgN/A
5:20 AM39 °FMostly cloudy.15 mph93%29.12 "HgN/A
4:50 AM41 °FOvercast.16 mph93%29.15 "HgN/A
4:20 AM41 °FMostly cloudy.14 mph93%29.15 "HgN/A
3:50 AM39 °FPassing clouds.12 mph100%29.18 "HgN/A
2:50 AM39 °FPassing clouds.9 mph93%29.21 "HgN/A
2:20 AM39 °FPartly cloudy.10 mph93%29.21 "HgN/A
1:50 AM39 °FPassing clouds.9 mph93%29.24 "HgN/A
12:50 AM37 °FPassing clouds.9 mph93%29.24 "HgN/A
12:20 AM36 °FPassing clouds.9 mph100%29.24 "HgN/A
11:50 PM
Sun, Nov 29
36 °FPartly cloudy.9 mph100%29.24 "HgN/A
11:20 PM36 °FPassing clouds.12 mph93%29.24 "HgN/A
10:50 PM36 °FSnow showers. Partly cloudy.15 mph93%29.24 "Hg4 mi
10:20 PM36 °FSprinkles. Passing clouds.15 mph93%29.27 "Hg6 mi
9:50 PM36 °FLow clouds.17 mph93%29.27 "HgN/A
9:20 PM36 °FLow clouds.17 mph93%29.30 "HgN/A
8:50 PM36 °FDrizzle. Low clouds.17 mph93%29.30 "Hg6 mi
8:20 PM36 °FLight rain. Mostly cloudy.16 mph87%29.30 "HgN/A
7:50 PM36 °FMostly cloudy.16 mph87%29.33 "HgN/A
7:20 PM36 °FDrizzle. Overcast.16 mph87%29.33 "HgN/A
6:50 PM36 °FOvercast.16 mph87%29.36 "HgN/A
6:20 PM36 °FOvercast.17 mph93%29.39 "HgN/A
5:50 PM36 °FLow clouds.17 mph93%29.39 "HgN/A
5:20 PM37 °FDrizzle. Low clouds.14 mph93%29.42 "Hg6 mi
4:50 PM37 °FDrizzle. Low clouds.14 mph93%29.42 "Hg6 mi
4:20 PM37 °FPartly cloudy.12 mph87%29.42 "HgN/A
3:50 PM37 °FPassing clouds.12 mph87%29.45 "HgN/A
3:20 PM39 °FPartly sunny.12 mph81%29.45 "HgN/A
2:50 PM39 °FPartly sunny.12 mph87%29.45 "HgN/A
2:20 PM39 °FPartly sunny.8 mph87%29.47 "HgN/A
1:50 PM39 °FScattered clouds.10 mph87%29.47 "HgN/A
1:20 PM39 °FPartly sunny.8 mph87%29.47 "HgN/A
12:50 PM39 °FPartly sunny.9 mph87%29.50 "HgN/A
12:20 PM39 °FPartly sunny.10 mph93%29.50 "HgN/A
11:20 AM37 °FMostly cloudy.7 mph100%29.53 "Hg6 mi
10:50 AM37 °FLow clouds.8 mph93%29.53 "Hg4 mi
10:20 AM37 °FLow clouds.8 mph93%29.53 "Hg4 mi
Weather by CustomWeather, © 2015

See weather overviewHow to use our weather pages